Find Starlink 32682

NORAD ID: 62196 Int'l Des: 2024-229 Owner: SPXS Country: US Constellation: starlink operational
LEOCIRCULAR

現在のビュー

3D地球を読み込み中...

About Starlink 32682

Starlink 32682 (NORAD 62196) is a starlink constellation satellite (v2 mini) launched Dec 4, 2024 by SPXS of US. It operates in LEO, CIRCULAR orbit with a mass of 730.00 kg.

Starlink 32682について

説明を読み込み中...

次回通過

Passes for default location (London). Set your location on the main map for personalized predictions.

高度履歴

Loading altitude history...

軌道要素

1 62196U 24229E 26196.83335647 -.00029052 00000-0 -10496-2 0 9998
2 62196 42.9995 234.3580 0001863 270.1036 39.6580 15.27599772 5848
Epoch: Jul 15, 2026 • Age: 6 hours

現在のステータス

高度 491.9 km
遠地点 / 近地点 N/A
速度 7.62 km/s
衛星直下点 -34.83°S, 137.56°E
打ち上げ日 Dec 4, 2024
運用期間 1.6 years
タイプ internet

技術仕様

分類 Payload
質量 730.00 kg
乾燥質量 700.00 kg
総質量 730.00 kg
長さ 0.30 m
直径 4.10 m
スパン 29.00 m
形状 Box + pan
製造者 SPXS
バスタイプ Starlink V2M
フェーズステータス In Orbit
所有者/国 SPXS/US

Most Searched